Location: Wellington
(41.3000°S, 174.7830°E)
Time: 00:38:58
(UTC+13:00)

Envisat - Pass Details

Date: 24 January 2019
Orbit: 764 x 766 km, 98.2° (Epoch: 22 February)

Event Time Altitude Azimuth Distance (km) Brightness Sun altitude
Rises 21:26:30 0° 173° (S) 3,273 6.6 -6.9°
Reaches altitude 10° 21:28:53 10° 177° (S) 2,339 6.0 -7.3°
Maximum altitude 21:33:51 51° 252° (WSW) 974 4.1 -8.0°
Drops below altitude 10° 21:38:47 10° 326° (NW) 2,311 5.5 -8.8°
Sets 21:41:07 0° 331° (NNW) 3,229 6.2 -9.2°
